{"data":{"norad_id":68137,"intl_designator":"2026-047J","name":"HULIANWANG DIGUI-163","alt_names":[],"object_type":"PAYLOAD","status":"ACTIVE","operator":null,"country":"PRC","launch_date":"2026-03-12","launch_site_code":"WSC","launch_vehicle":null,"mission":null,"orbit_class":"UNKNOWN","rcs_meters":null,"size_class":null,"mass_kg":null,"dimensions":null,"purposes":[],"wikipedia_slug":null,"has_3d_model":false,"image_url":null,"decayed_at":null,"tle_current":{"epoch":"2026-09-20T09:56:59.314560Z","epoch_age_seconds":85692,"freshness":"FRESH","line1":"1 68137U 26047J   26263.41457540 -.00000110  00000+0  31000-4 0  9993","line2":"2 68137  50.0060  74.3146 0001186  92.0418 268.0590 13.29329719 25747","mean_motion":13.29329719,"eccentricity":0.0001186,"inclination_deg":50.006,"raan_deg":74.3146,"arg_perigee_deg":92.0418,"mean_anomaly_deg":268.059,"bstar":3.1e-5,"rev_number":2574,"period_min":108.32526945108,"perigee_km":1148.399779267,"apogee_km":1150.1852855521,"semimajor_km":7527.4295324095,"source":"CELESTRAK","updated_at":"2026-09-21T09:00:17.095800Z"}}}